When you browse on this site, cookies collect data to enhance your experience and personalize the content and advertising you see.
Visit our Privacy Policy to learn more. By continuing to use the site, you agree to this use of cookies and data.
  • In Hungary
  • List of Countries
  • For 7 days
  • Water Temperature
  • Satellite Maps
  • Weather Map
  • News
  • Weather Widgets
  • user-avatar
    Login

    Hourly Weather Bacoli

    Today, 14 December, Friday

    Time Temperature Precipitation Wind Pressure Humidity
    00:00 +11°C° 1.1 mm 4 mps 755 mmHg 92%
    01:00 +10°C° 0 mm 5 mps 755 mmHg 91%
    02:00 +10°C° 1.2 mm 5 mps 755 mmHg 92%
    03:00 +10°C° 1.2 mm 5 mps 755 mmHg 92%
    04:00 +10°C° 1.2 mm 5 mps 754 mmHg 92%
    05:00 +10°C° 1.2 mm 5 mps 754 mmHg 92%
    06:00 +10°C° 1.2 mm 5 mps 754 mmHg 92%
    07:00 +10°C° 0 mm 5 mps 754 mmHg 92%
    08:00 +12°C° 0.8 mm 5 mps 754 mmHg 89%
    09:00 +13°C° 0.8 mm 5 mps 754 mmHg 86%
    10:00 +13°C° 0.8 mm 5 mps 754 mmHg 83%
    11:00 +14°C° 0.2 mm 5 mps 754 mmHg 80%
    12:00 +14°C° 0.2 mm 4 mps 754 mmHg 77%
    13:00 +14°C° 0.2 mm 4 mps 754 mmHg 74%
    14:00 +14°C° 0.3 mm 4 mps 754 mmHg 76%
    15:00 +14°C° 0.3 mm 4 mps 754 mmHg 77%
    16:00 +13°C° 0.3 mm 4 mps 754 mmHg 79%
    17:00 +13°C° 0.4 mm 3 mps 754 mmHg 79%
    18:00 +12°C° 0.4 mm 3 mps 754 mmHg 80%
    19:00 +12°C° 0.4 mm 3 mps 755 mmHg 81%
    20:00 +12°C° 0.3 mm 3 mps 755 mmHg 81%
    21:00 +12°C° 0.3 mm 3 mps 755 mmHg 81%
    22:00 +11°C° 0.3 mm 3 mps 755 mmHg 81%
    23:00 +11°C° 0.1 mm 4 mps 755 mmHg 81%

    Tomorrow, 15 December, Saturday

    Time Temperature Precipitation Wind Pressure Humidity
    00:00 +11°C° 0.1 mm 4 mps 755 mmHg 82%
    01:00 +11°C° 0.1 mm 4 mps 755 mmHg 82%
    02:00 +11°C° 0.1 mm 4 mps 755 mmHg 82%
    03:00 +11°C° 0.1 mm 4 mps 755 mmHg 82%
    04:00 +10°C° 0.1 mm 4 mps 755 mmHg 81%
    05:00 +9°C° 0.1 mm 5 mps 755 mmHg 81%
    06:00 +9°C° 0.1 mm 5 mps 755 mmHg 80%
    07:00 +9°C° 0.1 mm 5 mps 755 mmHg 80%
    08:00 +10°C° 0.4 mm 4 mps 756 mmHg 79%
    09:00 +10°C° 0.4 mm 4 mps 756 mmHg 77%
    10:00 +10°C° 0.4 mm 4 mps 757 mmHg 76%
    11:00 +8°C° 0.5 mm 5 mps 757 mmHg 75%
    12:00 +8°C° 0.5 mm 5 mps 757 mmHg 75%
    13:00 +8°C° 0.5 mm 6 mps 757 mmHg 75%
    14:00 +8°C° 0.2 mm 5 mps 757 mmHg 74%
    15:00 +7°C° 0.2 mm 5 mps 758 mmHg 73%
    16:00 +7°C° 0.2 mm 5 mps 758 mmHg 72%
    17:00 +7°C° 0 mm 5 mps 759 mmHg 71%
    18:00 +6°C° 0 mm 5 mps 759 mmHg 70%
    19:00 +5°C° 0 mm 4 mps 760 mmHg 69%
    20:00 +5°C° 0 mm 4 mps 760 mmHg 68%
    21:00 +4°C° 0 mm 4 mps 760 mmHg 66%
    22:00 +4°C° 0 mm 4 mps 761 mmHg 65%
    23:00 +4°C° 0 mm 4 mps 761 mmHg 64%

    Day after tomorrow, 16 December, Sunday

    Time Temperature Precipitation Wind Pressure Humidity
    00:00 +3°C° 0 mm 3 mps 761 mmHg 64%
    01:00 +3°C° 0 mm 3 mps 762 mmHg 63%
    02:00 +3°C° 0 mm 3 mps 762 mmHg 63%
    03:00 +3°C° 0 mm 3 mps 762 mmHg 62%
    04:00 +3°C° 0 mm 3 mps 762 mmHg 62%
    05:00 +4°C° 0 mm 2 mps 762 mmHg 61%
    06:00 +4°C° 0 mm 2 mps 762 mmHg 61%
    07:00 +4°C° 0 mm 2 mps 763 mmHg 60%
    08:00 +5°C° 0 mm 2 mps 763 mmHg 57%
    09:00 +7°C° 0 mm 2 mps 763 mmHg 53%
    10:00 +9°C° 0 mm 1 mps 763 mmHg 50%
    11:00 +10°C° 0 mm 1 mps 763 mmHg 47%
    12:00 +11°C° 0 mm 1 mps 763 mmHg 45%
    13:00 +12°C° 0 mm 1 mps 763 mmHg 43%
    14:00 +11°C° 0 mm 1 mps 763 mmHg 45%
    15:00 +11°C° 0 mm 1 mps 763 mmHg 47%
    16:00 +10°C° 0 mm 1 mps 763 mmHg 49%
    17:00 +10°C° 0 mm 1 mps 764 mmHg 52%
    18:00 +9°C° 0 mm 1 mps 764 mmHg 54%
    19:00 +8°C° 0 mm 1 mps 764 mmHg 57%
    20:00 +8°C° 0 mm 1 mps 764 mmHg 58%
    21:00 +8°C° 0 mm 1 mps 764 mmHg 59%
    22:00 +8°C° 0 mm 1 mps 764 mmHg 60%
    23:00 +7°C° 0 mm 2 mps 763 mmHg 62%

    17 December, Monday

    Time Temperature Precipitation Wind Pressure Humidity
    00:00 +7°C° 0 mm 2 mps 763 mmHg 64%
    01:00 +7°C° 0 mm 3 mps 762 mmHg 66%
    02:00 +7°C° 0.1 mm 3 mps 762 mmHg 67%
    03:00 +7°C° 0.1 mm 4 mps 761 mmHg 67%
    04:00 +7°C° 0.1 mm 4 mps 761 mmHg 68%
    05:00 +7°C° 0.4 mm 4 mps 760 mmHg 71%
    06:00 +7°C° 0.4 mm 5 mps 760 mmHg 74%
    07:00 +7°C° 0.4 mm 5 mps 760 mmHg 78%
    08:00 +8°C° 0.2 mm 4 mps 760 mmHg 81%
    09:00 +10°C° 0.2 mm 4 mps 759 mmHg 83%
    10:00 +10°C° 0.2 mm 3 mps 759 mmHg 86%
    11:00 +11°C° 0.2 mm 4 mps 759 mmHg 86%
    12:00 +12°C° 0.2 mm 4 mps 759 mmHg 85%
    13:00 +14°C° 0.2 mm 4 mps 758 mmHg 84%
    14:00 +13°C° 0.1 mm 5 mps 758 mmHg 85%
    15:00 +13°C° 0.1 mm 5 mps 758 mmHg 86%
    16:00 +13°C° 0.1 mm 5 mps 758 mmHg 86%
    17:00 +12°C° 0.4 mm 5 mps 759 mmHg 87%
    18:00 +12°C° 0.4 mm 5 mps 759 mmHg 88%
    19:00 +10°C° 0.4 mm 5 mps 759 mmHg 90%
    20:00 +10°C° 0.5 mm 5 mps 760 mmHg 89%
    21:00 +11°C° 0.5 mm 4 mps 760 mmHg 88%
    22:00 +11°C° 0.5 mm 4 mps 760 mmHg 88%
    23:00 +10°C° 0.2 mm 4 mps 760 mmHg 87%

    18 December, Tuesday

    Time Temperature Precipitation Wind Pressure Humidity
    00:00 +10°C° 0.2 mm 4 mps 761 mmHg 85%
    01:00 +10°C° 0.2 mm 4 mps 761 mmHg 84%
    02:00 +8°C° 0.1 mm 4 mps 761 mmHg 83%
    03:00 +8°C° 0.1 mm 4 mps 761 mmHg 82%
    04:00 +7°C° 0.1 mm 4 mps 762 mmHg 80%
    05:00 +7°C° 0 mm 4 mps 762 mmHg 77%
    06:00 +6°C° 0 mm 4 mps 763 mmHg 75%
    07:00 +6°C° 0 mm 4 mps 763 mmHg 72%
    08:00 +7°C° 0 mm 4 mps 764 mmHg 68%
    09:00 +8°C° 0 mm 4 mps 764 mmHg 65%
    10:00 +10°C° 0 mm 4 mps 765 mmHg 61%
    11:00 +11°C° 0 mm 4 mps 765 mmHg 59%
    12:00 +11°C° 0 mm 4 mps 765 mmHg 56%
    13:00 +12°C° 0 mm 4 mps 765 mmHg 54%
    14:00 +12°C° 0 mm 4 mps 765 mmHg 56%
    15:00 +11°C° 0 mm 3 mps 766 mmHg 58%
    16:00 +11°C° 0 mm 3 mps 766 mmHg 61%
    17:00 +10°C° 0 mm 3 mps 766 mmHg 64%
    18:00 +9°C° 0 mm 3 mps 767 mmHg 66%
    19:00 +8°C° 0 mm 2 mps 767 mmHg 69%
    20:00 +8°C° 0 mm 2 mps 767 mmHg 69%
    21:00 +7°C° 0 mm 2 mps 768 mmHg 69%
    22:00 +7°C° 0 mm 2 mps 768 mmHg 70%
    23:00 +7°C° 0 mm 2 mps 768 mmHg 68%

    19 December, Wednesday

    Time Temperature Precipitation Wind Pressure Humidity
    00:00 +7°C° 0 mm 2 mps 767 mmHg 67%
    01:00 +7°C° 0 mm 2 mps 767 mmHg 66%
    02:00 +7°C° 0 mm 2 mps 767 mmHg 65%
    03:00 +7°C° 0 mm 2 mps 767 mmHg 64%
    04:00 +7°C° 0 mm 1 mps 767 mmHg 63%
    05:00 +8°C° 0 mm 1 mps 767 mmHg 62%
    06:00 +8°C° 0 mm 1 mps 767 mmHg 61%
    07:00 +8°C° 0 mm 1 mps 767 mmHg 60%
    08:00 +9°C° 0 mm 1 mps 767 mmHg 58%
    09:00 +10°C° 0 mm 1 mps 767 mmHg 56%
    10:00 +11°C° 0 mm 1 mps 767 mmHg 54%
    11:00 +12°C° 0 mm 1 mps 766 mmHg 54%
    12:00 +13°C° 0 mm 1 mps 766 mmHg 55%
    13:00 +14°C° 0 mm 1 mps 765 mmHg 56%
    14:00 +13°C° 0 mm 1 mps 765 mmHg 60%
    15:00 +12°C° 0 mm 1 mps 765 mmHg 64%
    16:00 +12°C° 0 mm 1 mps 765 mmHg 68%
    17:00 +11°C° 0 mm 1 mps 765 mmHg 71%
    18:00 +11°C° 0 mm 1 mps 765 mmHg 74%
    19:00 +10°C° 0 mm 1 mps 765 mmHg 77%
    20:00 +10°C° 0 mm 1 mps 765 mmHg 78%
    21:00 +9°C° 0 mm 2 mps 765 mmHg 79%
    22:00 +9°C° 0 mm 2 mps 765 mmHg 80%
    23:00 +9°C° 0 mm 2 mps 765 mmHg 81%
    Show more